OpenBCM V1.13 (Linux)

Packet Radio Mailbox

DB0FHN

[JN59NK Nuernberg]

 Login: GUEST





  
LU9DCE > KEP      22.07.19 20:03l 245 Lines 12027 Bytes #999 (0) @ WW
BID : 28862_LU9DCE
Read: DJ6UX DF7EAV GUEST
Subj: TLE 22 07
Path: DB0FHN<DB0BLO<DB0ERF<DB0RES<DB0OVN<DB0GOS<ON0AR<VE2PKT<N3HYM<LU9DCE
Sent: 190722/1800Z 28862@LU9DCE.TOR.BA.ARG.SOAM LinBPQ6.0.18

            __    _  _  ___  ____   ___  ____    ____  ____  ____
           (  )  / )( \/ _ \(    \ / __)(  __)  (  _ \(  _ \/ ___)
           / (_/\) \/ (\__  )) D (( (__  ) _)    ) _ ( ) _ (\___ \
           \____/\____/(___/(____/ \___)(____)  (____/(____/(____/
               ESTACION DE PACKET RADIO - BUENOS AIRES (GF05OM)
                   BOLETINES INFORMATIVOS PROGRAMADOS (BIP)
                  SLACKWARE LINUX - HELLOCODELINUX@GMAIL.COM

+----------------------------------------------------------------------------+
OSCAR 7
1  7530U 74089B   19202.90225800 -.00000032 +00000-0 +80947-4 0  9991
2  7530 101.7458 170.2259 0011761 284.2983 133.2909 12.53638925044448
OSCAR 11 (UoSAT 2)
1 14781U 84021B   19203.09689115  .00000018  00000-0  82882-5 0  9992
2 14781  97.6090 226.2327 0007843 200.1972 159.8934 14.83096358903717
OSCAR 19 (LUSAT)
1 20442U 90005G   19202.83700602 -.00000005 +00000-0 +14324-4 0  9990
2 20442 098.6497 144.7840 0012779 054.9753 305.2628 14.32929201541069
EYESAT A
1 22825U 93061C   19202.94395086 -.00000015  00000-0  12264-4 0  9992
2 22825  98.9045 192.3420 0007291 261.4937  98.5419 14.30062676346709
ITAMSAT
1 22826U 93061D   19203.14772435 -.00000020  00000-0  10072-4 0  9994
2 22826  98.8985 192.5377 0007857 248.1218 111.9129 14.30396336346933
RADIO ROSTO
1 23439U 94085A   19202.86371117 -.00000036 +00000-0 +18042-3 0  9993
2 23439 064.8172 062.4821 0146174 106.7442 254.9578 11.27568441011631
JAS 2
1 24278U 96046B   19202.97335397 -.00000009  00000-0  24755-4 0  9995
2 24278  98.5419 351.8740 0350877 153.5709 208.3809 13.53092563132305
TECHSAT 1B
1 25397U 98043D   19203.07320836 -.00000021  00000-0  10110-4 0  9995
2 25397  98.6896 142.8152 0000723   4.2372 355.8812 14.23667891 92625
ISS (ZARYA)
1 25544U 98067A   19203.66810185  .00000582  00000-0  17684-4 0  9995
2 25544  51.6423 185.2360 0006749 167.6160 187.2600 15.50995102180753
PCSAT
1 26931U 01043C   19202.70993635 -.00000021 +00000-0 +23603-4 0  9997
2 26931 067.0514 278.4778 0007199 276.6494 083.3788 14.30547411929628
SAUDISAT 1C
1 27607U 02058C   19203.16291087 -.00000043  00000-0  14910-4 0  9993
2 27607  64.5558 307.2622 0080175 250.0825 109.1627 14.75559726891973
CUTE-1
1 27844U 03031E   19202.93046730 +.00000016 +00000-0 +27070-4 0  9995
2 27844 098.6833 210.6463 0008720 299.0145 061.0158 14.22186057832979
CUBESAT XI 4
1 27848U 03031J   19203.00244746  .00000010  00000-0  24427-4 0  9992
2 27848  98.6911 211.2246 0008786 311.5348  48.5075 14.21780396832875
MOZHAYETS 4
1 27939U 03042A   19203.54263540  .00000003  00000-0  92375-5 0  9997
2 27939  98.0458 338.7058 0012047 324.3916  35.6484 14.66791129845500
CUBESAT XI 5
1 28895U 05043F   19203.34766733  .00000077  00000-0  23719-4 0  9998
2 28895  97.9638 344.9333 0015572 243.0881 116.8731 14.63676358732403
CUTE-1.7+APD II
1 32785U 08021C   19202.83071537 +.00000089 +00000-0 +15204-4 0  9997
2 32785 097.5498 200.9829 0013876 147.1775 213.0307 14.88322040608547
DELFI C3
1 32789U 08021G   19202.68515419 +.00001070 +00000-0 +75371-4 0  9998
2 32789 097.4619 251.3515 0012544 020.6239 339.5492 15.07008088611838
SEEDS
1 32791U 08021J   19202.72628512 +.00000056 +00000-0 +10976-4 0  9998
2 32791 097.5277 206.8904 0014723 123.9294 236.3327 14.90837470608954
YUBELEINY
1 32953U 08025A   19203.44784785  .00000021  00000-0  75656-4 0  9995
2 32953  82.5027 123.7762 0020411  56.1009 304.2009 12.43090665506505
PRISM (HITOMI)
1 33493U 09002B   19203.35790958 -.00000151  00000-0 -76463-5 0  9994
2 33493  98.1214 125.5903 0016662  72.3237 287.9801 14.96682543570183
KKS-1 (KISEKI)
1 33499U 09002H   19203.51535106  .00000059  00000-0  16791-4 0  9992
2 33499  98.3486  43.2980 0010494  97.7732 262.4668 14.75449601564210
SWISSCUBE
1 35932U 09051B   19203.12635191  .00000058  00000-0  24092-4 0  9994
2 35932  98.5911  10.0825 0008760  67.5009 292.7115 14.56293677521646
BEESAT
1 35933U 09051C   19203.47080586  .00000051  00000-0  22560-4 0  9996
2 35933  98.5936  12.2106 0007049  78.5466 281.6522 14.56381847521802
ITUPSAT 1
1 35935U 09051E   19203.41048325  .00000028  00000-0  17700-4 0  9991
2 35935  98.6047  12.3843 0009337  75.4965 284.7266 14.55540552521548
XIWANG-1 (HOPE-1)
1 36122U 09072B   19202.72175004 -.00000042 +00000-0 +47877-6 0  9998
2 36122 100.0718 203.5462 0006981 269.0692 090.9613 13.16350326461226
TISAT 1
1 36799U 10035E   19203.36899737  .00000322  00000-0  38546-4 0  9997
2 36799  98.1600 356.6453 0011708 341.8827  18.1972 14.91120746489781
JUGNU
1 37839U 11058B   19203.23441294  .00000305  00000-0  20720-4 0  9992
2 37839  19.9609 131.3674 0018775 337.2310 176.2955 14.12654508402005
SRMSAT
1 37841U 11058D   19203.32884731  .00000277  00000-0  71206-5 0  9996
2 37841  19.9706 188.2681 0011776 205.2780 293.7659 14.10635318401443
M-CUBED/EXP-1 PRIME
1 37855U 11061F   19203.16261072  .00000912  00000-0  53549-4 0  9999
2 37855 101.7114 115.9396 0173439 337.6749  21.6977 15.05490018421816
HORYU 2
1 38340U 12025D   19202.66388079  .00000086  00000-0  20559-4 0  9998
2 38340  98.3267 242.2403 0011967  25.8215 334.3588 14.75729820386027
STRAND 1
1 39090U 13009E   19202.83445531  .00000002  00000-0  15978-4 0  9997
2 39090  98.4859  48.2324 0008954 182.9046 177.2089 14.35090697335149
SOMP
1 39134U 13015E   19203.43722416  .00000516  00000-0  32974-4 0  9995
2 39134  64.8631 271.1058 0032765 297.6201  62.1601 15.20207173345729
BEESAT 3
1 39135U 13015F   19202.62843457  .00000336  00000-0  26547-4 0  9994
2 39135  64.8700 292.4875 0025726 315.0942  44.8103 15.17509926345244
BEESAT 2
1 39136U 13015G   19203.46897476  .00000232  00000-0  21709-4 0  9998
2 39136  64.8708 293.6985 0020878 299.3961  60.5080 15.16938581345292
CUBEBUG 1
1 39153U 13018D   19203.21659917  .00000083  00000-0  17769-4 0  9994
2 39153  97.9798 301.1552 0018426  90.3807 269.9516 14.80576139336786
ZACUBE
1 39417U 13066B   19202.60561611  .00000101  00000-0  19292-4 0  9999
2 39417  97.5617 214.2572 0057396 286.6092  72.8824 14.81126267305914
TRITON 1
1 39427U 13066M   19203.47159640  .00000160  00000-0  33303-4 0  9995
2 39427  97.6782 178.7651 0115204  57.7265 303.5041 14.67853287303290
GOMX 1
1 39430U 13066Q   19203.49610119  .00000081  00000-0  23396-4 0  9997
2 39430  97.7493 157.8270 0151585 147.1893 213.8824 14.59262080301535
HUMSAT D
1 39433U 13066T   19202.80691046 +.00000422 +00000-0 +46415-4 0  9998
2 39433 097.5512 248.9563 0030615 187.2469 172.8312 14.92210060306831
CUBEBUG 2
1 39440U 13066AA  19203.44688523  .00000112  00000-0  22704-4 0  9994
2 39440  97.6027 199.8915 0079637 336.4261  23.3307 14.75864767304956
FUNCUBE 1
1 39444U 13066AE  19203.46576717  .00000142  00000-0  24002-4 0  9997
2 39444  97.5597 217.0476 0056432 277.2421  82.2380 14.81947474304931
UWE-3
1 39446U 13066AG  19202.91940511 +.00000094 +00000-0 +19279-4 0  9991
2 39446 097.5811 206.4547 0068852 312.5870 046.9545 14.78398947303584
SPROUT
1 39770U 14029E   19203.53802544  .00000432  00000-0  53942-4 0  9994
2 39770  97.8856 306.6130 0008801 343.6829  16.4101 14.87367148279866
UNISAT 6
1 40012U 14033C   19202.87126975 +.00000079 +00000-0 +19282-4 0  9999
2 40012 097.7536 068.0464 0058235 352.3556 007.6759 14.73987058273576
DUCHIFAT 1
1 40021U 14033M   19202.83887396  .00000084  00000-0  14492-4 0  9990
2 40021  97.9233 127.5425 0011716 305.7988  54.2140 14.90645159276481
QB50P1
1 40025U 14033R   19202.83115073  .00000115  00000-0  18248-4 0  9998
2 40025  97.9050 122.4619 0011435 316.1460  43.8848 14.88955440276258
CHUBUSAT 1
1 40300U 14070C   19203.24378527  .00000380  00000-0  19554-4 0  9991
2 40300  97.3260 276.5764 0019055 301.2082  92.6452 15.22111079261128
NUDT-PHONESAT
1 40900U 15049B   19203.49502012  .00001111  00000-0  50343-4 0  9993
2 40900  97.4358 212.4977 0014530  69.1174  83.5255 15.22861124212807
ZDPS 2A
1 40901U 15049C   19203.50956616  .00000322  00000-0  19269-4 0  9994
2 40901  97.4588 208.8429 0015110  85.7218  65.3387 15.17753877212366
ZDPS 2B
1 40902U 15049D   19203.47337356  .00000788  00000-0  42472-4 0  9993
2 40902  97.4537 206.2866 0015187  82.9506  70.4707 15.17582491212333
XW-2A
1 40903U 15049E   19203.46360593  .00001022  00000-0  25997-4 0  9997
2 40903  97.3344 246.4147 0014405  29.4130  77.2075 15.41927132215459
KAITUO 1A
1 40904U 15049F   19203.48664791  .00000369  00000-0  22975-4 0  9993
2 40904  97.4666 204.9158 0016298  90.3988  60.9851 15.15379961212112
OBJECT G
1 40905U 15049G   19203.51848027  .00000250  00000-0  17198-4 0  9994
2 40905  97.4702 202.4653 0017265  85.8139  31.0027 15.14306219211993
XW-2C
1 40906U 15049H   19203.40707589  .00000507  00000-0  30046-4 0  9992
2 40906  97.4670 204.9254 0016469  83.3153  26.4770 15.15696302212109
XW-2D
1 40907U 15049J   19203.45516438  .00000223  00000-0  15097-4 0  9993
2 40907  97.4649 204.6513 0015783  80.7779  76.1423 15.15883909212124
LILACSAT 2
1 40908U 15049K   19203.44944692 -.00000115  00000-0 -27153-5 0  9999
2 40908  97.4782 203.4583 0017543  86.6052  70.8653 15.13811885211916
XW-2F
1 40910U 15049M   19203.44160902  .00000358  00000-0  21258-4 0  9992
2 40910  97.4618 206.6721 0016324  74.9257  29.7388 15.17326763212132
XW-2B
1 40911U 15049N   19203.41403279  .00000451  00000-0  27021-4 0  9995
2 40911  97.4674 205.2651 0015683  81.0908  24.9282 15.15815076212016
KAITUO 1B
1 40912U 15049P   19203.49576134  .00000660  00000-0  34117-4 0  9991
2 40912  97.4489 210.4094 0016500  57.6793  94.0389 15.19644426212446
TIANWANG 1C (TW-1C)
1 40926U 15051B   19203.55098130  .00006138  00000-0  88885-4 0  9998
2 40926  97.1326 249.6876 0006379 238.2895 257.6913 15.56234318215420
